Location: *
(37.5724°S, 58.0067°E)
Time: 23:58:49
(UTC+00:00)

Daily predictions for brighter satellites

Satellite Brightness Start Highest point End
(mag) Time Altitude Azimuth Time Altitude Azimuth Time Altitude Azimuth
MOS 1 Rocket 3.3 14:23:26 10° NNE 14:28:00 80° ESE 14:32:55 10° S
Cosmos 2237 Rocket 4.2 14:26:42 10° NW 14:31:48 34° WSW 14:36:59 10° S
CZ-4C R/B 4.4 14:27:51 10° WSW 14:31:53 24° WNW 14:35:34 10° NNW
SL-16 R/B 2.3 14:28:50 10° NNW 14:34:29 90° WNW 14:40:14 10° SSE
ATLAS 5 CENTAUR R/B 3.7 14:31:48 10° S 14:35:22 17° SE 14:38:36 10° E
Cosmos 1680 Rocket 3.9 14:31:53 10° N 14:36:54 44° ENE 14:41:58 10° SSE
GEOS 3 Rocket 3.6 14:33:32 10° SE 14:38:36 69° ENE 14:43:40 10° NNW
Cosmos 1470 4.1 14:37:09 10° SSE 14:40:18 21° ESE 14:43:23 10° NE
Cosmos 1766 3.2 14:37:27 10° S 14:41:24 77° E 14:45:18 10° N
Lacrosse 5 3.4 14:41:33 10° SSW 14:45:35 22° SSE 14:49:31 10° E
SeaSat 1 3.1 14:42:13 10° SE 14:46:42 33° ENE 14:51:08 10° N
Delta 2 Rocket 4.2 14:41:03 10° W 14:46:49 74° N 14:52:01 12° E
H-2A R/B 3.7 14:45:24 10° ESE 14:47:01 11° E 14:48:05 11° ENE
USA 305 3.4 14:45:58 10° SW 14:50:13 47° SE 14:53:58 13° ENE
Cosmos 1707 3.7 14:48:33 10° NNE 14:51:51 27° E 14:55:12 10° SSE
Cosmos 1842 3.3 14:48:25 10° N 14:52:23 86° E 14:56:25 10° S
Okean O Rocket 2.8 14:48:17 10° S 14:52:37 48° WSW 14:56:56 10° NNW
Cosmos 1943 4.1 14:48:37 10° NNE 14:53:19 27° ENE 14:58:04 10° SE
USA 306 3.3 14:50:32 10° SW 14:54:49 51° SE 14:58:21 14° ENE
NOAA 11 4.2 14:51:33 10° SSE 14:57:07 73° ENE 15:02:37 10° N
Hubble Space Telescope 2.5 14:55:14 10° WNW 14:58:32 23° N 15:01:30 12° NE
CZ-2D R/B 3.7 14:54:58 10° SSE 14:58:41 38° E 15:02:20 10° NNE
OAO 3 Rocket 3.3 14:58:47 10° W 15:03:27 64° N 15:06:51 18° ENE
Cosmos 1455 Rocket 3.5 14:59:28 10° S 15:03:48 42° E 15:08:02 10° NNE
Helios 1A Rocket 3.1 15:00:10 10° SSE 15:04:11 50° E 15:08:09 10° N
Cosmos 1953 3.8 15:07:10 10° SSE 15:10:05 18° ESE 15:10:21 18° E
CZ-2C R/B 4.3 15:05:51 10° NE 15:10:19 42° ESE 15:14:52 10° S
FengYun 1-2 T 4.5 15:05:37 10° S 15:11:11 75° WSW 15:16:42 10° NNW
Cosmos 1733 4.5 15:08:33 10° SSW 15:12:19 45° W 15:16:03 10° NNW
CZ-3A R/B 4.4 15:06:41 10° SW 15:13:08 79° NW 15:31:53 10° NE
Cosmos 1437 3.7 15:13:33 10° NNW 15:16:28 46° W 15:19:25 10° S
Cosmos 371 Rocket 4.5 15:12:59 10° S 15:16:58 24° ESE 15:18:15 21° E
CZ-4 R/B 1.6 15:14:35 10° SSE 15:18:44 53° E 15:22:53 10° N
Cosmos 2369 Rocket 2.8 15:15:23 10° S 15:20:38 38° ESE 15:23:24 24° ENE
Cosmos 1603 3.7 15:15:34 10° N 15:21:02 56° ENE 15:26:35 10° SSE
Cosmos 1975 Rocket 3.6 15:18:40 10° NNW 15:23:01 62° W 15:27:29 10° S
USA 307 2.9 15:20:21 10° SW 15:24:46 89° SE 15:27:07 27° NE
USA 308 2.9 15:23:51 10° SW 15:28:15 86° NW 15:30:27 29° NE
USA 215 4.3 15:30:54 22° NE 15:30:54 22° NE 15:35:17 10° N
Genesis I 4.4 15:27:26 10° S 15:30:46 25° SE 15:31:00 25° ESE
Cosmos 2297 4.3 15:25:47 10° SSW 15:31:28 58° WNW 15:37:04 10° N
Cosmos 1758 3.2 15:28:08 10° S 15:32:11 72° E 15:34:51 20° NNE
YAOGAN 1 2.5 15:28:01 10° SSE 15:32:24 62° E 15:36:42 10° N
In-Cosmos 22 4.2 15:30:14 10° N 15:35:47 59° E 15:41:29 10° SSE
Nadezhda 4 Rocket 4.1 15:30:26 10° NNE 15:36:26 52° E 15:42:35 10° SSE
CZ-2C R/B 3.7 15:31:12 10° N 15:36:33 47° W 15:41:50 10° SSW
BREEZE-M DEB (TANK) 3.8 15:36:57 10° WNW 15:40:47 73° SSW 15:55:18 10° SE
OAO 2 Rocket 3.5 15:42:40 10° WNW 15:47:26 50° NNE 15:48:20 44° NE
Cosmos 1726 1.9 15:46:47 10° S 15:50:30 77° E 15:50:34 76° E
CSL-04 Rocket 3.6 15:46:56 10° SSE 15:52:14 59° ENE 15:57:31 10° N
CSL-04 Debris 4.1 15:47:17 10° SSE 15:52:46 64° ENE 15:58:08 10° N
Meteor 2-10 4.3 15:48:14 10° SSW 15:54:01 79° W 15:59:23 12° N
H-2A ROCKET BODY 4.3 15:49:44 10° WNW 15:56:35 57° NNE 16:11:03 28° ENE
Cosmos 1544 Rocket 3.8 15:53:14 10° SSW 15:57:44 70° W 16:00:12 26° N
Atlas Centaur 2 2.9 15:52:14 10° WNW 15:58:23 37° N 15:59:06 36° NNE
Cosmos 1656 Rocket 4.1 15:53:19 10° S 15:58:29 40° ESE 15:58:38 40° ESE
CZ-2C R/B 2.8 15:54:40 10° SSE 15:59:32 89° E 16:04:31 10° NNW
SL-4 R/B 3.4 15:58:28 10° SSW 16:00:38 23° S 16:00:38 23° S
OAO 1 Rocket 4.4 15:58:32 10° WNW 16:03:48 62° N 16:04:20 58° NE
Okean-O 3.9 16:01:05 10° S 16:05:19 41° WSW 16:09:30 10° NW
Cosmos 1025 Rocket 4.0 16:06:00 10° NNW 16:10:15 48° W 16:14:33 10° S
Cosmos 1943 Rocket 2.9 16:05:08 10° SSW 16:10:38 51° WNW 16:14:06 22° N
Cosmos 1371 Rocket 4.4 16:09:55 10° SSW 16:15:10 61° WNW 16:17:09 37° NNW
ATLAS 5 CENTAUR R/B 1.8 16:15:36 10° SW 16:20:48 71° WNW 16:20:48 71° WNW
SeaSat 1 4.3 16:19:46 10° S 16:24:05 30° SW 16:28:23 10° WNW
H-2A R/B 2.2 16:21:55 10° S 16:26:55 68° WSW 16:28:44 38° NW
ARGOS 3.0 16:21:30 10° SSE 16:26:42 80° SE 16:26:42 80° SE
Lacrosse 5 2.0 16:23:53 10° SW 16:28:44 72° W 16:28:44 72° W
Cosmos 2056 Rocket 4.2 16:23:53 10° SSW 16:29:12 53° WNW 16:30:38 41° NNW
Delta 2 Rocket 4.3 16:23:48 10° W 16:28:53 56° NW 16:28:53 56° NW
Cosmos 1420 Rocket 4.1 16:26:53 10° SSW 16:31:42 73° SSW 16:31:42 73° SSW
BREEZE-M R/B 3.5 16:27:03 10° WSW 16:34:06 51° NW 16:34:09 51° NW
Cosmos 2195 Rocket 4.3 16:38:11 86° SE 16:38:11 86° SE 16:44:19 10° S
Cosmos 2026 Rocket 4.1 16:41:55 62° SSE 16:41:55 62° SSE 16:47:05 10° S
Cosmos 1092 Rocket 4.1 16:41:34 50° NNW 16:43:20 75° W 16:49:47 10° S
Cosmos 1627 Rocket 4.5 16:44:09 73° SSE 16:44:09 73° SSE 16:49:47 10° S
Meteor 2-5 Rocket 4.3 16:46:19 53° SSE 16:46:19 53° SSE 16:50:49 10° S
Cosmos 1953 4.3 16:42:54 10° SSW 16:46:05 28° W 16:46:05 28° W
Cosmos 1452 Rocket 4.4 16:43:15 10° SSW 16:46:48 43° S 16:46:48 43° S
SME Rocket 4.2 16:56:06 73° SSW 16:56:06 73° SSW 17:03:13 10° SSW
Aureole 3 Rocket 4.5 16:47:33 10° S 16:56:20 73° SE 16:56:20 73° SE
Cosmos 2369 Rocket 3.8 16:59:47 10° SW 17:04:25 27° WNW 17:05:14 26° WNW
Cosmos 2227 Rocket 4.4 22:13:24 20° E 22:13:24 20° E 22:16:17 10° SE
Cosmos 2219 4.4 22:38:46 38° ESE 22:38:46 38° ESE 22:42:40 10° SSE
SL-16 R/B 3.2 22:33:23 10° SSE 22:38:13 52° SE 22:38:13 52° SE
USA 229 DEB 4.1 22:42:59 67° E 22:42:59 67° E 22:50:00 10° SE
USA 229 4.1 22:43:03 67° E 22:43:03 67° E 22:50:04 10° SE
Lacrosse 5 rocket 4.1 22:56:29 15° SSE 22:56:29 15° SSE 22:57:17 10° SSE
NOSS 3-1 (A) 4.3 22:55:14 60° NNE 22:56:35 68° ENE 23:04:35 10° SE
Cosmos 2297 Rocket 2.8 22:58:27 53° SE 22:58:27 53° SE 23:02:55 10° SSE
Timation 2 Rocket 4.3 23:00:26 69° S 23:00:26 69° S 23:06:32 10° SSE
DELTA 2 R/B (1) 4.1 23:07:50 57° ESE 23:07:50 57° ESE 23:12:23 10° E
ALOS 4.1 23:16:38 10° NE 23:20:42 30° ESE 23:24:49 10° S
Gblst 52 Del rocket 4.3 23:21:07 76° SSW 23:21:07 76° SSW 23:26:49 10° SE
Cosmos 2237 Rocket 2.2 23:22:00 10° SSW 23:27:47 83° ESE 23:33:29 10° NNE
Cosmos 2242 Rocket 4.4 23:24:00 10° S 23:28:25 49° E 23:29:34 39° NE
IRAS Rocket 4.1 23:23:40 10° SSE 23:29:21 82° WSW 23:29:26 82° W
ISS -1.4 23:31:42 25° ESE 23:31:42 25° ESE 23:33:22 10° ESE
SL-16 R/B 4.0 23:25:36 10° S 23:30:40 31° ESE 23:35:42 10° ENE
Cosmos 1980 3.5 23:25:08 10° SSW 23:30:52 87° WNW 23:36:32 10° NNE
NOSS 3-1 (C) 4.3 23:31:31 49° W 23:33:09 55° SW 23:40:52 10° SSE
Cosmos 1821 Rocket 4.4 23:41:35 44° WSW 23:41:35 44° WSW 23:46:47 10° S
Cosmos 1934 Rocket 3.9 23:39:28 49° NNW 23:41:19 81° W 23:47:46 10° S
ATLAS CENTAUR R/B 3.5 23:43:15 19° SSW 23:43:15 19° SSW 23:45:34 10° S
Cosmos 1000 Rocket 4.5 23:35:45 10° SSW 23:42:01 60° W 23:42:34 58° WNW
Cosmos 1933 Rocket 4.2 23:44:32 45° SSW 23:44:32 45° SSW 23:47:47 10° S
Cosmos 1484 Rocket 3.4 23:46:32 10° NNE 23:50:24 56° ESE 23:54:15 10° S
Cosmos 773 Rocket 4.3 23:45:31 10° SSW 23:50:48 66° ESE 23:55:57 10° NNE
CZ-2C R/B 3.6 23:53:38 27° SW 23:53:38 27° SW 23:56:07 10° SSW
